Main page
METAR-TAF:

METAR-TAF

Airports :

Ardabil, Iran

Ardabil Airport

latitude: 38-19-35N, longitude: 048-25-28E, elevation: 1315 m

Current weather observation

The report was made 39 minutes ago, at 15:52 UTC
Wind 8 kt from the South
Temperature 4°C
Humidity 56%
Pressure 1021 hPa
Visibility 10 km or more
no clouds below 1500 m and no cumulonimbus

METAR: OITL 181552Z 19008KT CAVOK 04/M04 Q1021

Time: 20:01 (16:31 UTC)


TAF: missing

Weather observations and forecasts of more than 4000 airports (METAR and TAF reports).

The available stations are represented by yellow and red dots on the map.

Hover mouse over dot to see the name of the station.

Then click to see weather observations and forecasts.

To change the map : click on the green buttons with a black cross to zoom in, on the green button with a dash to zoom out, or on the green arrows for adjacent maps.


METAR-TAF: